| time (UTC) | temp C | wind direction | speed KPH | gust KPH | rain 1hr cm | rain 24hr cm | rain mn cm | humidity % | barometer mb |
| 20260504081939 | 7 | 121 | 3.2 | 3.2 | 0.00 | 0.00 | 0.00 | 94 | 1015.0 |
| 20260504081436 | 6 | 241 | 0.0 | 0.0 | 0.00 | 0.00 | 0.00 | 94 | 1015.2 |
| 20260504080932 | 6 | 280 | 0.0 | 0.0 | 0.00 | 0.00 | 0.00 | 94 | 1015.1 |
| 20260504080429 | 7 | 253 | 0.0 | 0.0 | 0.00 | 0.00 | 0.00 | 94 | 1015.0 |
| 20260504070356 | 6 | 144 | 1.6 | 1.6 | 0.00 | 0.00 | 0.00 | 93 | 1015.1 |
| 20260504050744 | 7 | 255 | 0.0 | 0.0 | 0.00 | 0.00 | 0.00 | 88 | 1015.6 |
| 20260504050241 | 7 | 269 | 0.0 | 0.0 | 0.00 | 0.00 | 0.00 | 87 | 1015.5 |
| 20260504045739 | 7 | 253 | 0.0 | 0.0 | 0.00 | 0.00 | 0.00 | 87 | 1015.7 |
| 20260504045233 | 7 | 246 | 0.0 | 0.0 | 0.00 | 0.00 | 0.00 | 87 | 1015.6 |
| 20260504044731 | 7 | 247 | 0.0 | 0.0 | 0.00 | 0.00 | 0.00 | 88 | 1015.5 |
| 20260504044228 | 7 | 250 | 0.0 | 0.0 | 0.00 | 0.00 | 0.00 | 87 | 1015.3 |
| 20260504043725 | 7 | 251 | 0.0 | 0.0 | 0.00 | 0.00 | 0.00 | 90 | 1015.5 |
| 20260504043222 | 7 | 280 | 0.0 | 0.0 | 0.00 | 0.00 | 0.00 | 89 | 1015.4 |
| 20260504042720 | 7 | 286 | 0.0 | 0.0 | 0.00 | 0.00 | 0.00 | 89 | 1015.5 |
| 20260504042216 | 7 | 284 | 0.0 | 0.0 | 0.00 | 0.00 | 0.00 | 87 | 1015.6 |
| 20260504041712 | 7 | 242 | 0.0 | 1.6 | 0.00 | 0.00 | 0.00 | 87 | 1015.4 |
| 20260504041208 | 7 | 233 | 0.0 | 1.6 | 0.00 | 0.00 | 0.00 | 87 | 1015.7 |
| 20260504040705 | 7 | 297 | 0.0 | 0.0 | 0.00 | 0.00 | 0.00 | 88 | 1015.3 |
| 20260504040202 | 7 | 249 | 0.0 | 0.0 | 0.00 | 0.00 | 0.00 | 87 | 1015.2 |
| 20260504035658 | 7 | 233 | 1.6 | 1.6 | 0.00 | 0.00 | 0.00 | 87 | 1015.2 |
| 20260504035156 | 7 | 231 | 0.0 | 1.6 | 0.00 | 0.00 | 0.00 | 88 | 1015.4 |
| 20260504034653 | 7 | 261 | 0.0 | 0.0 | 0.00 | 0.00 | 0.00 | 87 | 1015.6 |
| 20260504034150 | 7 | 237 | 0.0 | 1.6 | 0.00 | 0.00 | 0.00 | 88 | 1015.4 |
| 20260504033648 | 7 | 262 | 0.0 | 0.0 | 0.00 | 0.00 | 0.00 | 88 | 1015.5 |
| 20260504033145 | 7 | 249 | 0.0 | 0.0 | 0.00 | 0.00 | 0.00 | 86 | 1015.3 |
| 20260504032641 | 7 | 217 | 0.0 | 1.6 | 0.00 | 0.00 | 0.00 | 87 | 1015.3 |
| 20260504032138 | 7 | 236 | 0.0 | 0.0 | 0.00 | 0.00 | 0.00 | 88 | 1015.3 |
| 20260504031636 | 6 | 249 | 0.0 | 0.0 | 0.00 | 0.00 | 0.00 | 89 | 1015.3 |
| 20260504031132 | 6 | 247 | 0.0 | 0.0 | 0.00 | 0.00 | 0.00 | 89 | 1015.4 |
| 20260504030629 | 6 | 316 | 0.0 | 0.0 | 0.00 | 0.00 | 0.00 | 87 | 1015.4 |
| 20260504030125 | 6 | 237 | 0.0 | 0.0 | 0.00 | 0.00 | 0.00 | 86 | 1015.5 |
| 20260504025622 | 6 | 270 | 0.0 | 0.0 | 0.00 | 0.00 | 0.00 | 86 | 1015.2 |
| 20260504025119 | 6 | 217 | 0.0 | 0.0 | 0.00 | 0.00 | 0.00 | 87 | 1015.4 |
| 20260504024616 | 6 | 260 | 0.0 | 0.0 | 0.00 | 0.00 | 0.00 | 86 | 1015.3 |
| 20260504024113 | 6 | 214 | 1.6 | 1.6 | 0.00 | 0.00 | 0.00 | 86 | 1015.3 |
| 20260504023609 | 6 | 250 | 0.0 | 0.0 | 0.00 | 0.00 | 0.00 | 87 | 1015.2 |
| 20260504023105 | 6 | 325 | 0.0 | 1.6 | 0.00 | 0.00 | 0.00 | 87 | 1015.3 |
| 20260504022602 | 6 | 260 | 0.0 | 0.0 | 0.00 | 0.00 | 0.00 | 86 | 1015.2 |
| 20260504022058 | 6 | 259 | 0.0 | 0.0 | 0.00 | 0.00 | 0.00 | 86 | 1015.1 |
| 20260504021556 | 5 | 248 | 0.0 | 0.0 | 0.00 | 0.00 | 0.00 | 86 | 1015.1 |
| 20260504021052 | 5 | 315 | 0.0 | 0.0 | 0.00 | 0.00 | 0.00 | 86 | 1015.1 |
| 20260504020549 | 5 | 271 | 0.0 | 0.0 | 0.00 | 0.00 | 0.00 | 86 | 1015.2 |
| 20260504020046 | 5 | 229 | 0.0 | 0.0 | 0.00 | 0.00 | 0.00 | 86 | 1015.1 |
| 20260504015542 | 5 | 243 | 0.0 | 0.0 | 0.00 | 0.00 | 0.00 | 84 | 1015.0 |
| 20260504015038 | 5 | 243 | 0.0 | 0.0 | 0.00 | 0.00 | 0.00 | 85 | 1015.0 |
| 20260504014535 | 5 | 245 | 0.0 | 0.0 | 0.00 | 0.00 | 0.00 | 85 | 1014.9 |
| 20260504014032 | 5 | 250 | 0.0 | 0.0 | 0.00 | 0.00 | 0.00 | 84 | 1015.0 |
| 20260504013529 | 5 | 311 | 0.0 | 0.0 | 0.00 | 0.00 | 0.00 | 84 | 1015.1 |
| 20260504013026 | 5 | 257 | 0.0 | 0.0 | 0.00 | 0.00 | 0.00 | 82 | 1014.9 |
| 20260504012524 | 6 | 267 | 0.0 | 0.0 | 0.00 | 0.00 | 0.00 | 81 | 1014.7 |
| 20260504012022 | 6 | 246 | 0.0 | 0.0 | 0.00 | 0.00 | 0.00 | 80 | 1014.7 |
| 20260504011518 | 6 | 227 | 0.0 | 0.0 | 0.00 | 0.00 | 0.00 | 80 | 1014.6 |
| 20260504011014 | 6 | 233 | 0.0 | 0.0 | 0.00 | 0.00 | 0.00 | 81 | 1014.6 |
| 20260504010510 | 7 | 276 | 0.0 | 0.0 | 0.00 | 0.00 | 0.00 | 79 | 1014.7 |
| 20260504010006 | 7 | 241 | 0.0 | 0.0 | 0.00 | 0.00 | 0.00 | 78 | 1014.6 |
| 20260504005503 | 7 | 302 | 0.0 | 0.0 | 0.00 | 0.00 | 0.00 | 77 | 1014.7 |
| 20260504005000 | 7 | 231 | 0.0 | 0.0 | 0.00 | 0.00 | 0.00 | 77 | 1014.5 |
| 20260504004458 | 7 | 251 | 0.0 | 0.0 | 0.00 | 0.00 | 0.00 | 77 | 1014.7 |
| 20260504003955 | 7 | 259 | 0.0 | 0.0 | 0.00 | 0.00 | 0.00 | 76 | 1014.5 |
| 20260504003451 | 8 | 267 | 0.0 | 0.0 | 0.00 | 0.00 | 0.00 | 74 | 1014.2 |
| 20260504002948 | 8 | 227 | 0.0 | 0.0 | 0.00 | 0.00 | 0.00 | 68 | 1014.3 |
| 20260504002445 | 9 | 253 | 0.0 | 0.0 | 0.00 | 0.00 | 0.00 | 68 | 1014.3 |
| 20260504001942 | 9 | 228 | 0.0 | 0.0 | 0.00 | 0.00 | 0.00 | 70 | 1014.2 |
| 20260504001439 | 10 | 248 | 0.0 | 0.0 | 0.00 | 0.00 | 0.00 | 66 | 1014.5 |
| 20260504000936 | 10 | 176 | 0.0 | 0.0 | 0.00 | 0.00 | 0.00 | 66 | 1014.5 |
| 20260504000433 | 10 | 316 | 0.0 | 0.0 | 0.00 | 0.00 | 0.00 | 66 | 1014.3 |
| 20260503235930 | 11 | 326 | 0.0 | 1.6 | 0.00 | 0.00 | 0.00 | 59 | 1014.4 |
| 20260503235428 | 11 | 25 | 0.0 | 0.0 | 0.00 | 0.00 | 0.00 | 58 | 1014.2 |
| 20260503234925 | 12 | 41 | 0.0 | 0.0 | 0.00 | 0.00 | 0.00 | 57 | 1013.9 |
| 20260503234423 | 12 | 15 | 1.6 | 1.6 | 0.00 | 0.00 | 0.00 | 53 | 1014.2 |
| 20260503233921 | 13 | 9 | 1.6 | 1.6 | 0.00 | 0.00 | 0.00 | 52 | 1014.2 |
| 20260503233417 | 15 | 332 | 0.0 | 1.6 | 0.00 | 0.00 | 0.00 | 52 | 1013.9 |
| 20260503232913 | 17 | 294 | 0.0 | 0.0 | 0.00 | 0.00 | 0.00 | 44 | 1013.9 |
| 20260503232410 | 17 | 233 | 1.6 | 1.6 | 0.00 | 0.00 | 0.00 | 34 | 1013.8 |
| 20260503231908 | 17 | 249 | 1.6 | 1.6 | 0.00 | 0.00 | 0.00 | 35 | 1013.8 |
| 20260503231405 | 17 | 256 | 3.2 | 3.2 | 0.00 | 0.00 | 0.00 | 32 | 1013.9 |
| 20260503230902 | 18 | 271 | 4.8 | 4.8 | 0.00 | 0.00 | 0.00 | 32 | 1013.7 |
| 20260503230358 | 18 | 257 | 3.2 | 3.2 | 0.00 | 0.00 | 0.00 | 30 | 1013.8 |
| 20260503225856 | 18 | 294 | 3.2 | 3.2 | 0.00 | 0.00 | 0.00 | 29 | 1013.6 |
| 20260503225351 | 18 | 241 | 3.2 | 3.2 | 0.00 | 0.00 | 0.00 | 30 | 1013.5 |
| 20260503224848 | 18 | 235 | 3.2 | 4.8 | 0.00 | 0.00 | 0.00 | 29 | 1013.8 |
| 20260503224345 | 18 | 241 | 1.6 | 3.2 | 0.00 | 0.00 | 0.00 | 31 | 1013.7 |
| 20260503223843 | 18 | 251 | 0.0 | 1.6 | 0.00 | 0.00 | 0.00 | 29 | 1013.8 |
| 20260503223341 | 19 | 278 | 4.8 | 8.0 | 0.00 | 0.00 | 0.00 | 28 | 1013.7 |
| 20260503222836 | 18 | 230 | 9.7 | 11.3 | 0.00 | 0.00 | 0.00 | 28 | 1013.6 |
| 20260503222335 | 19 | 220 | 4.8 | 4.8 | 0.00 | 0.00 | 0.00 | 27 | 1013.9 |
| 20260503221832 | 19 | 239 | 1.6 | 3.2 | 0.00 | 0.00 | 0.00 | 26 | 1013.9 |
| 20260503221331 | 20 | 265 | 1.6 | 3.2 | 0.00 | 0.00 | 0.00 | 27 | 1013.8 |
| 20260503220826 | 19 | 272 | 0.0 | 1.6 | 0.00 | 0.00 | 0.00 | 27 | 1013.9 |
| 20260503220324 | 19 | 20 | 1.6 | 1.6 | 0.00 | 0.00 | 0.00 | 32 | 1014.2 |
| 20260503215820 | 19 | 304 | 1.6 | 3.2 | 0.00 | 0.00 | 0.00 | 30 | 1014.1 |
| 20260503215318 | 19 | 25 | 8.0 | 9.7 | 0.00 | 0.00 | 0.00 | 27 | 1013.9 |
| 20260503214815 | 19 | 75 | 8.0 | 11.3 | 0.00 | 0.00 | 0.00 | 27 | 1014.1 |
| 20260503214312 | 20 | 14 | 4.8 | 8.0 | 0.00 | 0.00 | 0.00 | 26 | 1014.2 |
| 20260503213810 | 19 | 348 | 0.0 | 1.6 | 0.00 | 0.00 | 0.00 | 28 | 1013.8 |
| 20260503213307 | 18 | 339 | 4.8 | 8.0 | 0.00 | 0.00 | 0.00 | 29 | 1014.2 |
| 20260503212804 | 20 | 236 | 4.8 | 4.8 | 0.00 | 0.00 | 0.00 | 28 | 1013.9 |
| 20260503212304 | 19 | 292 | 4.8 | 4.8 | 0.00 | 0.00 | 0.00 | 28 | 1014.1 |
| 20260503211759 | 20 | 332 | 3.2 | 4.8 | 0.00 | 0.00 | 0.00 | 30 | 1014.1 |
| 20260503211255 | 19 | 37 | 12.9 | 17.7 | 0.00 | 0.00 | 0.00 | 28 | 1014.2 |
| 20260503210755 | 19 | 335 | 4.8 | 4.8 | 0.00 | 0.00 | 0.00 | 30 | 1013.9 |
| 20260503210253 | 18 | 353 | 1.6 | 1.6 | 0.00 | 0.00 | 0.00 | 30 | 1014.2 |
| 20260503205748 | 20 | 307 | 4.8 | 4.8 | 0.00 | 0.00 | 0.00 | 28 | 1013.9 |
| 20260503205245 | 19 | 288 | 0.0 | 1.6 | 0.00 | 0.00 | 0.00 | 32 | 1014.2 |
| 20260503204741 | 18 | 216 | 1.6 | 1.6 | 0.00 | 0.00 | 0.00 | 29 | 1014.3 |
| 20260503204239 | 19 | 216 | 9.7 | 11.3 | 0.00 | 0.00 | 0.00 | 29 | 1014.2 |
| 20260503203736 | 19 | 114 | 1.6 | 3.2 | 0.00 | 0.00 | 0.00 | 31 | 1014.1 |
| 20260503203234 | 19 | 209 | 6.4 | 9.7 | 0.00 | 0.00 | 0.00 | 30 | 1014.4 |
| 20260503202731 | 19 | 225 | 8.0 | 9.7 | 0.00 | 0.00 | 0.00 | 31 | 1014.4 |
| 20260503202229 | 19 | 18 | 3.2 | 3.2 | 0.00 | 0.00 | 0.00 | 31 | 1014.5 |
| 20260503201726 | 18 | 325 | 1.6 | 3.2 | 0.00 | 0.00 | 0.00 | 32 | 1014.5 |
| 20260503201224 | 18 | 75 | 1.6 | 1.6 | 0.00 | 0.00 | 0.00 | 35 | 1014.6 |
| 20260503200720 | 18 | 232 | 8.0 | 9.7 | 0.00 | 0.00 | 0.00 | 31 | 1014.8 |
| 20260503200216 | 18 | 251 | 3.2 | 3.2 | 0.00 | 0.00 | 0.00 | 32 | 1014.9 |
| 20260503195713 | 19 | 5 | 4.8 | 8.0 | 0.00 | 0.00 | 0.00 | 31 | 1015.1 |
| 20260503195210 | 18 | 31 | 8.0 | 9.7 | 0.00 | 0.00 | 0.00 | 31 | 1014.8 |
| 20260503194707 | 18 | 322 | 1.6 | 1.6 | 0.00 | 0.00 | 0.00 | 31 | 1014.8 |
| 20260503194203 | 19 | 22 | 6.4 | 9.7 | 0.00 | 0.00 | 0.00 | 32 | 1014.8 |
| 20260503193700 | 18 | 298 | 4.8 | 4.8 | 0.00 | 0.00 | 0.00 | 32 | 1015.2 |
| 20260503193155 | 18 | 247 | 4.8 | 4.8 | 0.00 | 0.00 | 0.00 | 31 | 1015.1 |
| 20260503192651 | 20 | 219 | 4.8 | 4.8 | 0.00 | 0.00 | 0.00 | 29 | 1015.3 |
| 20260503192147 | 18 | 266 | 1.6 | 1.6 | 0.00 | 0.00 | 0.00 | 33 | 1015.4 |
| 20260503191644 | 18 | 349 | 3.2 | 3.2 | 0.00 | 0.00 | 0.00 | 34 | 1015.4 |
| 20260503191141 | 18 | 340 | 4.8 | 8.0 | 0.00 | 0.00 | 0.00 | 31 | 1015.4 |
| 20260503190638 | 18 | 296 | 3.2 | 4.8 | 0.00 | 0.00 | 0.00 | 32 | 1015.8 |
| 20260503190134 | 18 | 221 | 1.6 | 1.6 | 0.00 | 0.00 | 0.00 | 35 | 1015.6 |
| 20260503185631 | 18 | 243 | 1.6 | 1.6 | 0.00 | 0.00 | 0.00 | 34 | 1015.7 |
| 20260503185126 | 18 | 235 | 1.6 | 1.6 | 0.00 | 0.00 | 0.00 | 32 | 1016.1 |
| 20260503184622 | 18 | 293 | 3.2 | 3.2 | 0.00 | 0.00 | 0.00 | 35 | 1015.9 |
| 20260503184118 | 17 | 299 | 1.6 | 1.6 | 0.00 | 0.00 | 0.00 | 35 | 1016.0 |
| 20260503183615 | 16 | 347 | 4.8 | 8.0 | 0.00 | 0.00 | 0.00 | 36 | 1016.0 |
| 20260503183112 | 17 | 50 | 9.7 | 14.5 | 0.00 | 0.00 | 0.00 | 34 | 1016.0 |
| 20260503182611 | 18 | 275 | 6.4 | 11.3 | 0.00 | 0.00 | 0.00 | 35 | 1016.3 |
| 20260503182109 | 18 | 307 | 1.6 | 3.2 | 0.00 | 0.00 | 0.00 | 34 | 1016.5 |
| 20260503181605 | 17 | 314 | 1.6 | 3.2 | 0.00 | 0.00 | 0.00 | 35 | 1016.2 |
| 20260503181102 | 17 | 104 | 4.8 | 8.0 | 0.00 | 0.00 | 0.00 | 35 | 1016.4 |
| 20260503180559 | 17 | 338 | 6.4 | 8.0 | 0.00 | 0.00 | 0.00 | 35 | 1016.3 |
| 20260503180056 | 16 | 247 | 1.6 | 1.6 | 0.00 | 0.00 | 0.00 | 39 | 1016.4 |
| 20260503175553 | 16 | 227 | 6.4 | 9.7 | 0.00 | 0.00 | 0.00 | 35 | 1016.3 |
| 20260503175050 | 16 | 234 | 12.9 | 16.1 | 0.00 | 0.00 | 0.00 | 34 | 1016.4 |
| 20260503174547 | 16 | 354 | 1.6 | 3.2 | 0.00 | 0.00 | 0.00 | 35 | 1016.8 |
| 20260503174044 | 16 | 322 | 4.8 | 8.0 | 0.00 | 0.00 | 0.00 | 34 | 1016.7 |
| 20260503173539 | 15 | 258 | 6.4 | 8.0 | 0.00 | 0.00 | 0.00 | 37 | 1016.6 |
| 20260503173035 | 17 | 316 | 4.8 | 8.0 | 0.00 | 0.00 | 0.00 | 35 | 1016.5 |
| 20260503172533 | 16 | 62 | 4.8 | 4.8 | 0.00 | 0.00 | 0.00 | 35 | 1016.8 |
| 20260503172030 | 16 | 162 | 1.6 | 4.8 | 0.00 | 0.00 | 0.00 | 39 | 1016.7 |
| 20260503171526 | 15 | 67 | 6.4 | 8.0 | 0.00 | 0.00 | 0.00 | 38 | 1016.9 |
| 20260503171024 | 16 | 254 | 0.0 | 1.6 | 0.00 | 0.00 | 0.00 | 35 | 1017.1 |
| 20260503170520 | 16 | 264 | 3.2 | 4.8 | 0.00 | 0.00 | 0.00 | 39 | 1017.1 |
| 20260503150913 | 11 | 53 | 1.6 | 1.6 | 0.00 | 0.00 | 0.00 | 44 | 1018.4 |
| 20260503150409 | 12 | 313 | 1.6 | 1.6 | 0.00 | 0.00 | 0.00 | 44 | 1018.7 |
| 20260503131302 | 9 | 354 | 6.4 | 8.0 | 0.00 | 0.00 | 0.00 | 46 | 1018.5 |
| 20260503130800 | 8 | 308 | 9.7 | 12.9 | 0.00 | 0.00 | 0.00 | 45 | 1018.0 |
| 20260503130257 | 8 | 256 | 3.2 | 4.8 | 0.00 | 0.00 | 0.00 | 50 | 1018.2 |
| 20260503110650 | 3 | 10 | 0.0 | 1.6 | 0.00 | 0.00 | 0.00 | 79 | 1017.3 |
| 20260503110148 | 3 | 295 | 0.0 | 1.6 | 0.00 | 0.00 | 0.00 | 79 | 1017.2 |
| 20260503100114 | 5 | 194 | 0.0 | 1.6 | 0.00 | 0.00 | 0.00 | 60 | 1015.7 |